La Paz, Bolivia

7:52 AM -04 en Junio 23, 2018 (GMT -0400)
El Alto International

Tiempo Historia de SLLP - Enero, 2018

Change the Weather History Date:

Sábado, Enero 13, 2018

  Actual Average Record
Temperature  
Temperatura media 44 ° F -  
Temperatura máxima 49 ° F 55 ° F 62 ° F (1998)
Temperatura mínima 40 ° F 38 ° F 35 ° F (2000)
Degree Days  
Grados día de calefacción 20    
Moisture  
Punto de rocío 40 ° F    
Average Humidity 84    
Maximum Humidity 93    
Minimum Humidity 66    
Precipitación  
Precipitación 0.24 pul - - ()
Presión al nivel del mar  
Presión al nivel del mar 30.54 pul    
Viento  
Velocidad del viento 5 mph ()    
Velocidad máxima del viento 10 mph    
Max Gust Speed -    
Visibilidad 4.8 Millas    
Eventos Niebla , Lluvia    
Averages and records for this station are not official NWS values.
T = Trace of Precipitation, MM = Missing Value Source: Averaged Metar Reports

Daily Weather History Graph

Daily Weather History Graph

Search for Another Location

Airport or City:

Astronomía

Jan. 13, 2018 Salida Puesta
Hora real 6:10 AM -04 7:11 PM -04
Crepúsculo civil 5:47 AM -04 7:35 PM -04
Crepúsculo náutico 5:19 AM -04 8:03 PM -04
Crepúsculo astronómico 4:51 AM -04 8:31 PM -04
Luna 3:25 AM -04 (1/13) 4:34 PM -04 (1/13)
Horas de luz 13h 48m
Horas de luz
13h 01m
Creciente menguante, 10% of the Moon is Illuminated
Ene 13
Creciente menguante
Ene 16
Nueva
Ene 24
Cuarto creciente
Ene 31
Luna llena
Feb 7
Cuarto menguante

Hourly Weather History & Observations

Hora (-04) Temp. Vientos helados Punto de rocío Humedad Presión Visibilidad Wind Dir Velocidad del viento Velocidad de ráfagas Precip Eventos Condiciones
12:00 AM 41.0 ° F 38.0 ° F 37.4 ° F 87% 30.57 pul 3.7 mi NO 4.6 mph - N/A Lluvia Lluvia débil
1:00 AM 41.0 ° F 37.1 ° F 37.4 ° F 87% 30.57 pul 3.7 mi ONO 5.8 mph - N/A Lluvia Lluvia débil
2:00 AM 40 ° F - 37 ° F 86%  pul 4 mi NO 5.8 mph - - Lluvia Lluvia débil
2:00 AM 41.0 ° F 37.1 ° F 37.4 ° F 87% 30.54 pul 3.7 mi NO 5.8 mph - N/A Lluvia Lluvia débil
3:00 AM 41.0 ° F 36.4 ° F 37.4 ° F 87% 30.54 pul 6.2 mi NNO 6.9 mph - N/A   Muy nublado
4:00 AM 41.0 ° F 39.0 ° F 37.4 ° F 87% 30.51 pul 6.2 mi Norte 3.5 mph - N/A   Muy nublado
5:00 AM 42 ° F - 38 ° F 81%  pul 9 mi Oeste 3.5 mph - -   Parcialmente nublado
5:00 AM 42.8 ° F 41.1 ° F 37.4 ° F 81% 30.51 pul 6.2 mi Oeste 3.5 mph - N/A   Muy nublado
6:00 AM 42.8 ° F - 37.4 ° F 81% 30.51 pul 6.2 mi Variable 2.3 mph - N/A   Muy nublado
7:00 AM 42.8 ° F 40.1 ° F 37.4 ° F 81% 30.54 pul 6.2 mi Oeste 4.6 mph - N/A   Muy nublado
8:00 AM 41 ° F - 39 ° F 88%  pul 2 mi Oeste 8.1 mph - - Lluvia Lluvia débil
8:00 AM 41.0 ° F 35.8 ° F 39.2 ° F 93% 30.57 pul 2.5 mi Oeste 8.1 mph - N/A Lluvia Lluvia débil
9:00 AM 42.8 ° F 37.5 ° F - N/A% 30.57 pul 3.7 mi SO 9.2 mph - N/A Lluvia Lluvia débil
9:36 AM 42.8 ° F 40.1 ° F 39.2 ° F 87% 30.60 pul 1.2 mi SO 4.6 mph - N/A Niebla , Lluvia Lluvia débil
10:00 AM 44.6 ° F - 41.0 ° F 87% 30.60 pul 2.5 mi Variable 2.3 mph - N/A Lluvia Lluvia débil
11:00 AM 43 ° F - 40 ° F 85%  pul 3 mi ONO 6.9 mph - - Lluvia Lluvia débil
11:00 AM 42.8 ° F 38.6 ° F 41.0 ° F 93% 30.60 pul 3.1 mi ONO 6.9 mph - N/A Lluvia Lluvia débil
12:00 PM 46.4 ° F 41.9 ° F 39.2 ° F 76% 30.57 pul 6.2 mi NO 9.2 mph - N/A Lluvia Lluvia débil
1:00 PM 50.0 ° F - 39.2 ° F 66% 30.54 pul 6.2 mi NO 6.9 mph - N/A   Muy nublado
2:00 PM 48 ° F - 40 ° F 66%  pul 9 mi SE 9.2 mph - -   Muy nublado
2:00 PM 48.2 ° F - 41.0 ° F 76% 30.54 pul 6.2 mi SE 9.2 mph - N/A   Muy nublado
3:00 PM 48.2 ° F - 42.8 ° F 82% 30.48 pul 3.7 mi ESE 8.1 mph - N/A   Muy nublado
4:00 PM 48.2 ° F - 42.8 ° F 82% 30.45 pul 6.2 mi Este 10.4 mph - N/A   Muy nublado
5:00 PM 47 ° F - 41 ° F 73%  pul 9 mi NNE 8.1 mph - -   Muy nublado
5:00 PM 48.2 ° F - 41.0 ° F 76% 30.45 pul 6.2 mi NNE 8.1 mph - N/A   Muy nublado
6:00 PM 48.2 ° F - 41.0 ° F 76% 30.45 pul 6.2 mi Este 5.8 mph - N/A   Muy nublado
7:00 PM 44.6 ° F 39.7 ° F 41.0 ° F 87% 30.48 pul 6.2 mi ENE 9.2 mph - N/A   Muy nublado
8:00 PM 43 ° F - 40 ° F 85%  pul 2 mi SE 8.1 mph - - Lluvia Lluvia débil
8:00 PM 42.8 ° F 38.0 ° F 41.0 ° F 93% 30.51 pul 2.5 mi SE 8.1 mph - N/A Niebla , Lluvia Lluvia débil
9:00 PM 44.6 ° F 39.7 ° F 42.8 ° F 93% 30.54 pul 2.5 mi ESE 9.2 mph - N/A Niebla , Lluvia Lluvia débil
10:00 PM 42.8 ° F 38.6 ° F 41.0 ° F 93% 30.57 pul 3.7 mi Sur 6.9 mph - N/A Lluvia Lluvia débil
11:00 PM 42 ° F - 40 ° F 88%  pul 5 mi 2.3 mph - - Lluvia Lluvia débil
11:00 PM 42.8 ° F - 39.2 ° F 87% 30.60 pul 5.0 mi Variable 2.3 mph - N/A Lluvia Lluvia débil